Regional Weather Roundup
Issued by NWS Grand Forks, ND

Home | Current Version | Previous Version | Text Only | Print | Product List | Glossary On
Versions: 1 2 3 4 5 6 7 8 9 10 11 12 13 14 15 16 17 18 19 20 21 22 23 24 25 26 27 28 29 30 31 32 33 34 35 36 37 38 39 40 41 42 43 44 45 46 47 48 49 50
000
ASUS43 KFGF 241210
RWRFGF
PRAIRIE TO PINES  WEATHER ROUNDUP
NATIONAL WEATHER SERVICE EASTERN NORTH DAKOTA/GRAND FORKS ND
700 AM CDT WED AUG 24 2016

 **SATELLITE DATA USED TO AUGMENT SKY COVER AT AUTOMATED STATIONS**
 *****  WEATHER ACROSS EASTERN NORTH DAKOTA  *****

CITY           SKY/WX    TMP DP  RH WIND       PRES   REMARKS
GRAND FORKS    PTCLDY    57  51  80 SW8       29.81S
6HR MIN TEMP:  55; 6HR MAX TEMP:  65;

GRAND FRKS AFB PTCLDY    55  51  86 W8        29.82S
GRAND FRKS NWS   N/A     55 N/A N/A W6          N/A
DEVILS LAKE    CLEAR     58  51  78 W17       29.87R
6HR MIN TEMP:  57; 6HR MAX TEMP:  64;

FARGO          CLEAR     57  49  74 W8        29.87R
WAHPETON ARPT  SUNNY     52  48  87 W7        29.91R
$$

 ***** WEATHER ACROSS CENTRAL AND WESTERN NORTH DAKOTA  *****

CITY           SKY/WX    TMP DP  RH WIND       PRES   REMARKS
BISMARCK       CLEAR     57  49  74 W14       29.99R
6HR MIN TEMP:  53; 6HR MAX TEMP:  60;

MINOT          PTCLDY    56  49  77 SW10      29.91R
6HR MIN TEMP:  56; 6HR MAX TEMP:  64;

JAMESTOWN      CLEAR     56  50  80 W12       29.92R
6HR MIN TEMP:  53; 6HR MAX TEMP:  59;

MINOT AFB      PTCLDY    55  49  81 SW12      29.89R
GARRISON         N/A     53  49  86 W7        29.96R
WILLISTON      LGT RAIN  57  50  77 W17       29.98R
6HR MIN TEMP:  57; 6HR MAX TEMP:  61; 6HR PCP: TRACE;

DICKINSON      CLEAR     52  47  83 W13       30.03R
6HR MIN TEMP:  51; 6HR MAX TEMP:  57;

HETTINGER      CLEAR     52  47  83 W14       30.10R
6HR MIN TEMP:  47; 6HR MAX TEMP:  52;

$$

 *****  OTHER AIRPORT OBSERVATIONS IN OUR AREA  *****

CITY           SKY/WX    TMP DP  RH WIND       PRES   REMARKS
WALHALLA       NOT AVBL
GRAFTON AIRPOR FAIR      55  54  94 SW9       29.82R
VALLEY CITY AR FAIR      57  54  88 W14       29.93R
CANDO          NOT AVBL
CAVALIER APRT  FAIR      55  50  82 W12       29.79S
GWINNER        FAIR      55  52  88 W12       29.93R
SHEYENNE NWR     N/A     54  49  83 W7        29.95
ROLLA          FAIR      54  50  87 W10       29.85R
 ***** THE ABOVE OBSERVATIONS ARE NON NWS ARE NOT QUALITY
       CONTROLLED AND MAY MIS-REPORT RAIN FOR SNOW...
$$

  *****  WEATHER ACROSS NORTHERN MINNESOTA  *****

CITY           SKY/WX    TMP DP  RH WIND       PRES   REMARKS
FLAG ISLAND    PTCLDY    66  63  88 CALM      29.73S FOG
WARROAD        CLOUDY    64  61  88 SW6       29.77S
ROSEAU         CLEAR     59  54  82 SW5       29.78R
HALLOCK        PTCLDY    52  50  93 S3        29.78S
THF RVR FALLS  CLEAR     56  53  90 SW7       29.82S
6HR MIN TEMP:  54; 6HR MAX TEMP:  70;

BAUDETTE       CLOUDY    66  63  90 W9        29.76S
6HR MIN TEMP:  66; 6HR MAX TEMP:  73;

WASKISH        CLOUDY    66  64  94 W9        29.79R
CROOKSTON      CLEAR     57  52  82 W8        29.83S
GREENBUSH NDAW   N/A     55  54  94 SW2         N/A
$$
  *****  WEATHER ACROSS CENTRAL AND WEST MINNESOTA  *****

CITY           SKY/WX    TMP DP  RH WIND       PRES   REMARKS
FOSSTON        CLEAR     52  52 100 S3        29.85R
BEMIDJI        CLEAR     61  56  85 W6        29.82S
PARK RAPIDS    CLEAR     62  57  83 W8        29.84R
6HR MIN TEMP:  62; 6HR MAX TEMP:  69; 6HR PCP: TRACE;

ELBOW LAKE     FAIR      57  56  94 NW6       29.90R
WADENA         NOT AVBL
DETROIT LAKES  CLEAR     61  55  82 W6        29.88S
MOORHEAD       CLEAR     55  52  88 SW5       29.88R
FERGUS FALLS   CLEAR     57  55  94 NW7       29.90R
MORRIS MN      CLEAR     57  55  94 NW7       29.89R
STAPLES        MOCLDY    64  63  94 W6        29.83S
$$
  *****  WEATHER ELSEWHERE ACROSS MINNESOTA  *****

CITY           SKY/WX    TMP DP  RH WIND       PRES   REMARKS
DULUTH         CLOUDY    66  64  93 CALM      29.82S FOG
6HR MIN TEMP:  64; 6HR MAX TEMP:  69;

INTRNTL FALLS  CLOUDY    69  65  86 VRB6      29.75F
6HR MIN TEMP:  69; 6HR MAX TEMP:  71;

ELY            CLOUDY    63  61  94 CALM      29.81F
CLOQUET        CLOUDY    64  63  94 CALM      29.81F
WHEATON        CLEAR     61  54  77 W8        29.92S
BRAINERD       CLOUDY    67  65  93 SW6       29.82F
6HR MIN TEMP:  63; 6HR MAX TEMP:  67;

HIBBING        FOG       57  57 100 CALM      29.82S VSB 1/2
6HR MIN TEMP:  54; 6HR MAX TEMP:  66;

ALEXANDRIA     PTCLDY    66  59  78 NW8       29.89R
6HR MIN TEMP:  65; 6HR MAX TEMP:  68;

SAINT CLOUD    CLOUDY    67  67 100 W3        29.83R
6HR MIN TEMP:  65; 6HR MAX TEMP:  67;

MINNEAPOLIS    MOCLDY    68  66  93 W6        29.83R
6HR MIN TEMP:  68; 6HR MAX TEMP:  69; 6HR PCP:  0.07;

$$

  *****  WEATHER ACROSS SOUTH DAKOTA  *****

CITY           SKY/WX    TMP DP  RH WIND       PRES   REMARKS
SIOUX FALLS    PTCLDY    60  53  77 NW6       29.95R
6HR MIN TEMP:  60; 6HR MAX TEMP:  74;

BROOKINGS      CLEAR     56  53  90 NW3       29.95R
WATERTOWN      CLEAR     60  54  80 NW8       29.96R
6HR MIN TEMP:  57; 6HR MAX TEMP:  71;

HURON          CLEAR     53  47  79 NW10      29.98R
6HR MIN TEMP:  50; 6HR MAX TEMP:  59;

SISSETON         N/A     60  49  66 NW9       29.91R
ABERDEEN       CLEAR     56  47  71 W8        29.98R
6HR MIN TEMP:  51; 6HR MAX TEMP:  64;

MITCHELL       CLEAR     55  47  74 W6        29.98S
PIERRE         CLEAR     55  47  74 NW9       30.04R
6HR MIN TEMP:  53; 6HR MAX TEMP:  60;

MOBRIDGE       PTCLDY    59  45  59 W10       30.02R
RAPID CITY     PTCLDY    59  42  53 N17       30.15R
6HR MIN TEMP:  55; 6HR MAX TEMP:  62;

$$

  *****  SOME WEATHER IN NEARBY STATES *****

CITY           SKY/WX    TMP DP  RH WIND       PRES   REMARKS
GLASGOW MT     CLOUDY    56  46  69 W21G30    30.07R
6HR MIN TEMP:  55; 6HR MAX TEMP:  59;

GREAT FALLS MT CLOUDY    51  44  77 W5        30.31R
6HR MIN TEMP:  51; 6HR MAX TEMP:  56; 6HR PCP:  0.01;

CHEYENNE WY    LGT RAIN  59  43  55 E7        30.24R
6HR MIN TEMP:  56; 6HR MAX TEMP:  63; 6HR PCP: TRACE;

SCOTTSBLUFF NE CLOUDY    58  41  53 E7        30.16R
6HR MIN TEMP:  56; 6HR MAX TEMP:  61;

OMAHA NE       MOCLDY    69  63  81 W5        29.92R
6HR MIN TEMP:  67; 6HR MAX TEMP:  70;

DES MOINES IA  PTCLDY    68  65  90 SW7       29.89R
6HR MIN TEMP:  68; 6HR MAX TEMP:  78; 6HR PCP:  0.12;

DAVENPORT IA   CLOUDY    72  70  93 SE8       29.93R
6HR MIN TEMP:  71; 6HR MAX TEMP:  73; 6HR PCP:  1.51;

CHICAGO IL     CLOUDY    71  66  84 S13       29.99F
6HR MIN TEMP:  70; 6HR MAX TEMP:  74;

EAU CLAIRE WI  CLOUDY    67  66  97 S5        29.82R
6HR MIN TEMP:  67; 6HR MAX TEMP:  69; 6HR PCP:  0.02;

LA CROSSE WI   CLOUDY    69  50  51 S8        29.85R
6HR MIN TEMP:  68; 6HR MAX TEMP:  69; 6HR PCP:  0.38;

$$

  *****  SOME NATIONAL WEATHER *****

CITY           SKY/WX    TMP DP  RH WIND       PRES   REMARKS
LA GUARDIA NY  MOSUNNY   75  61  61 NW5       30.29R
6HR MIN TEMP:  71; 6HR MAX TEMP:  75;

RALEIGH NC     MOSUNNY   71  62  73 CALM      30.32R
6HR MIN TEMP:  64; 6HR MAX TEMP:  72;

ATLANTA GA     PTSUNNY   75  73  93 SE3       30.28R
6HR MIN TEMP:  74; 6HR MAX TEMP:  79;

NEW ORLEANS LA MOCLDY    82  78  88 CALM      30.14R FOG     HX  91
6HR MIN TEMP:  81; 6HR MAX TEMP:  84;

OKLAHOMA CITY  MOCLDY    76  68  76 S13       30.03R
6HR MIN TEMP:  76; 6HR MAX TEMP:  81;

ALBUQUERQUE NM PTCLDY    60  51  72 CALM      30.21R
6HR MIN TEMP:  59; 6HR MAX TEMP:  67;

SALT LAKE CITY CLEAR     62  36  37 SE8       30.12R
6HR MIN TEMP:  61; 6HR MAX TEMP:  70;

LOS ANGELES CA CLEAR     65  59  81 CALM      30.01S
6HR MIN TEMP:  64; 6HR MAX TEMP:  67;

BOISE ID       CLEAR    C1F1C2F2C3F3C4F4C5F5C6F6C7F7C8F8C9F9CaFaCbFbCcFcCd!


USA.gov is the U.S. government's official web portal to all federal, state and local government web resources and services.